Ainsworth, NE

7:39 AM CDT on April 23, 2017 (GMT -0500)
Ainsworth Municipal

Weather History for KANW - July, 2012

Change the Weather History Date:

Monday, July 23, 2012

  Actual Average Record
Temperature  
Mean Temperature 90 °F -  
Max Temperature 107 °F 84 °F 107 °F (2012)
Min Temperature 73 °F 61 °F 50 °F (2004)
Cooling Degree Days 24    
Growing Degree Days 40 (Base 50)    
Moisture  
Dew Point 54 °F    
Average Humidity 35    
Maximum Humidity 69    
Minimum Humidity 13    
Precipitation  
Precipitation 0.00 in - - ()
Sea Level Pressure  
Sea Level Pressure 29.96 in    
Wind  
Wind Speed 12 mph (South)    
Max Wind Speed 24 mph    
Max Gust Speed 31 mph    
Visibility 10 miles    
Events Rain , Thunderstorm    
Averages and records for this station are not official NWS values.
T = Trace of Precipitation, MM = Missing Value Source: NWS Daily Summary

Daily Weather History Graph

Daily Weather History Graph

Search for Another Location

Airport or City:

Trip Planner

Search our weather history database for the weather conditions in past years. The results will help you decide how hot, cold, wet, or windy it might be!

Date:

Astronomy

Jul. 23, 2012 Rise Set
Actual Time 6:23 AM CDT 9:08 PM CDT
Civil Twilight 5:50 AM CDT 9:41 PM CDT
Nautical Twilight 5:09 AM CDT 10:22 PM CDT
Astronomical Twilight 4:21 AM CDT 11:10 PM CDT
Moon 11:24 AM CDT 11:15 PM CDT
Length of Visible Light 15h 51m
Length of Day
14h 45m
Waxing Crescent, 22% of the Moon is Illuminated
Jul 23
Waxing Crescent
Jul 26
First Quarter
Aug 1
Full
Aug 9
Last Quarter
Aug 17
New

Hourly Weather History & Observations

Time (CDT) Temp. Heat Index Dew Point Humidity Pressure Visibility Wind Dir Wind Speed Gust Speed Precip Events Conditions
12:15 AM 77.0 °F - 62.1 °F 60% 30.02 in 10.0 mi North 10.4 mph - N/A Thunderstorm Clear
12:35 AM 81.9 °F 82.3 °F 60.3 °F 48% 30.03 in 5.0 mi NE 10.4 mph - N/A   Haze
1:15 AM 82.4 °F 82.5 °F 59.4 °F 45% 30.03 in 10.0 mi ENE 8.1 mph - N/A   Clear
1:35 AM 82.2 °F 82.4 °F 59.5 °F 46% 30.04 in 10.0 mi East 8.1 mph - N/A   Clear
1:55 AM 80.6 °F 81.2 °F 60.1 °F 49% 30.05 in 10.0 mi East 6.9 mph - N/A   Clear
2:15 AM 79.9 °F - 60.3 °F 51% 30.05 in 10.0 mi East 8.1 mph - N/A   Clear
2:35 AM 79.9 °F - 59.9 °F 50% 30.06 in 10.0 mi NNE 6.9 mph - N/A   Clear
2:55 AM 77.0 °F - 60.8 °F 57% 30.06 in 10.0 mi East 6.9 mph - N/A   Clear
3:15 AM 76.3 °F - 60.8 °F 59% 30.05 in 10.0 mi East 8.1 mph - N/A   Clear
3:35 AM 75.2 °F - 60.8 °F 61% 30.06 in 10.0 mi East 8.1 mph - N/A   Clear
3:55 AM 75.2 °F - 61.0 °F 61% 30.05 in 10.0 mi ESE 8.1 mph - N/A Rain , Thunderstorm Light Thunderstorms and Rain
4:15 AM 73.6 °F - 62.8 °F 69% 30.05 in 10.0 mi ESE 6.9 mph - N/A Rain Light Rain
4:35 AM 74.3 °F - 61.7 °F 65% 30.04 in 10.0 mi ESE 9.2 mph - N/A   Clear
4:55 AM 74.7 °F - 61.3 °F 63% 30.05 in 10.0 mi SE 9.2 mph - N/A   Clear
5:15 AM 74.8 °F - 61.7 °F 64% 30.04 in 10.0 mi SE 12.7 mph - N/A   Clear
5:35 AM 73.9 °F - 62.4 °F 67% 30.05 in 10.0 mi SE 10.4 mph - N/A   Clear
5:55 AM 73.9 °F - 62.6 °F 68% 30.05 in 10.0 mi SE 8.1 mph - N/A   Clear
6:15 AM 73.8 °F - 62.6 °F 68% 30.03 in 10.0 mi SE 6.9 mph - N/A   Clear
6:35 AM 73.8 °F - 62.6 °F 68% 30.03 in 10.0 mi SE 6.9 mph - N/A   Clear
6:55 AM 74.3 °F - 62.6 °F 67% 30.03 in 10.0 mi SE 6.9 mph - N/A   Clear
7:15 AM 74.3 °F - 62.4 °F 66% 30.02 in 10.0 mi SE 6.9 mph - N/A   Clear
8:35 AM 78.6 °F - 62.8 °F 58% 30.01 in 10.0 mi SE 6.9 mph - N/A   Clear
8:55 AM 80.6 °F 81.5 °F 60.8 °F 51% 30.01 in 10.0 mi SSE 8.1 mph - N/A   Clear
9:15 AM 83.1 °F 83.0 °F 59.0 °F 44% 30.01 in 10.0 mi SSE 6.9 mph - N/A   Clear
9:35 AM 87.6 °F 85.5 °F 53.4 °F 31% 29.99 in 10.0 mi SSW 11.5 mph 18.4 mph N/A   Clear
9:55 AM 89.6 °F 87.5 °F 54.1 °F 30% 29.99 in 10.0 mi SSW 13.8 mph 17.3 mph N/A   Clear
10:15 AM 91.6 °F - 52.9 °F 27% 29.98 in 10.0 mi SSW 16.1 mph - N/A   Clear
10:35 AM 93.0 °F - 52.5 °F 25% 29.97 in 10.0 mi SSW 16.1 mph - N/A   Clear
10:55 AM 94.5 °F - 52.2 °F 24% 29.97 in 10.0 mi SW 16.1 mph 19.6 mph N/A   Clear
11:15 AM 95.4 °F - 52.7 °F 24% 29.97 in 10.0 mi SSW 15.0 mph - N/A   Clear
11:35 AM 97.0 °F - 52.2 °F 22% 29.97 in 10.0 mi SSW 11.5 mph 17.3 mph N/A   Clear
11:55 AM 98.4 °F - 50.9 °F 20% 29.96 in 10.0 mi SW 15.0 mph - N/A   Clear
12:15 PM 100.6 °F - 51.4 °F 19% 29.96 in 10.0 mi SSW 16.1 mph - N/A   Clear
12:35 PM 101.1 °F - 49.6 °F 18% 29.96 in 10.0 mi SSW 11.5 mph 18.4 mph N/A   Clear
12:55 PM 102.6 °F - 48.7 °F 16% 29.95 in 10.0 mi SSW 17.3 mph 23.0 mph N/A   Clear
1:15 PM 103.6 °F - 49.3 °F 16% 29.95 in 10.0 mi SSW 18.4 mph 23.0 mph N/A   Clear
1:35 PM 104.2 °F - 48.0 °F 15% 29.94 in 10.0 mi South 15.0 mph 21.9 mph N/A   Clear
1:55 PM 104.5 °F - 47.3 °F 15% 29.94 in 10.0 mi South 16.1 mph 24.2 mph N/A   Clear
2:15 PM 105.8 °F - 46.0 °F 13% 29.93 in 10.0 mi SSW 17.3 mph 26.5 mph N/A   Clear
2:35 PM 105.8 °F - 45.1 °F 13% 29.92 in 10.0 mi SSW 19.6 mph 29.9 mph N/A   Clear
2:55 PM 105.8 °F - 45.9 °F 13% 29.92 in 10.0 mi South 19.6 mph 28.8 mph N/A   Clear
3:15 PM 106.0 °F - 45.7 °F 13% 29.91 in 10.0 mi SSW 19.6 mph 28.8 mph N/A   Clear
3:35 PM 106.7 °F - 45.7 °F 13% 29.90 in 10.0 mi SSW 20.7 mph 29.9 mph N/A   Clear
3:55 PM 106.5 °F - 45.0 °F 13% 29.91 in 10.0 mi South 21.9 mph 28.8 mph N/A   Clear
4:15 PM 105.8 °F - 45.1 °F 13% 29.90 in 10.0 mi SSW 13.8 mph 31.1 mph N/A   Clear
4:35 PM 105.8 °F - 44.4 °F 13% 29.90 in 10.0 mi South 20.7 mph 31.1 mph N/A   Clear
5:15 PM 105.3 °F - 45.7 °F 13% 29.89 in 10.0 mi SSW 21.9 mph 27.6 mph N/A   Clear
5:35 PM 105.3 °F - 46.0 °F 14% 29.89 in 10.0 mi SSW 18.4 mph 28.8 mph N/A   Clear
5:55 PM 104.5 °F - 46.0 °F 14% 29.88 in 10.0 mi SSW 24.2 mph 28.8 mph N/A   Clear
6:15 PM 104.4 °F - 46.4 °F 14% 29.88 in 10.0 mi SSW 24.2 mph - N/A   Clear
6:35 PM 103.5 °F - 47.3 °F 15% 29.87 in 10.0 mi SSW 18.4 mph 23.0 mph N/A   Clear
6:55 PM 102.7 °F - 48.0 °F 16% 29.87 in 10.0 mi SSW 19.6 mph 28.8 mph N/A   Clear
7:15 PM 102.4 °F - 49.1 °F 17% 29.87 in 10.0 mi South 20.7 mph 25.3 mph N/A   Clear
7:35 PM 100.8 °F 98.9 °F 54.5 °F 21% 29.86 in 10.0 mi South 21.9 mph 28.8 mph N/A   Clear
7:55 PM 99.0 °F 97.3 °F 54.7 °F 23% 29.87 in 10.0 mi South 15.0 mph 25.3 mph N/A   Clear
8:15 PM 97.5 °F 95.7 °F 54.5 °F 24% 29.86 in 10.0 mi South 20.7 mph 25.3 mph N/A   Clear
8:35 PM 95.9 °F 93.9 °F 54.5 °F 25% 29.87 in 10.0 mi South 20.7 mph 28.8 mph N/A   Clear
8:55 PM 94.3 °F 92.1 °F 54.5 °F 26% 29.87 in 10.0 mi South 18.4 mph - N/A   Clear
9:15 PM 92.7 °F 90.4 °F 54.5 °F 27% 29.87 in 10.0 mi South 16.1 mph - N/A   Clear
9:35 PM 91.2 °F 89.1 °F 54.5 °F 29% 29.88 in 10.0 mi South 15.0 mph - N/A   Clear
9:55 PM 89.6 °F 87.5 °F 54.5 °F 30% 29.89 in 10.0 mi South 15.0 mph - N/A   Clear
10:15 PM 89.1 °F 87.1 °F 54.9 °F 31% 29.90 in 10.0 mi South 16.1 mph - N/A   Clear
10:35 PM 88.5 °F 86.7 °F 54.9 °F 32% 29.90 in 10.0 mi South 17.3 mph - N/A   Clear
10:55 PM 87.6 °F 85.7 °F 54.7 °F 32% 29.90 in 10.0 mi South 16.1 mph 21.9 mph N/A   Clear
11:15 PM 86.5 °F 84.9 °F 54.7 °F 34% 29.91 in 10.0 mi South 16.1 mph 20.7 mph N/A   Clear
11:35 PM 86.0 °F 84.3 °F 54.7 °F 34% 29.90 in 10.0 mi South 16.1 mph - N/A   Clear
11:55 PM 85.1 °F 83.8 °F 55.2 °F 36% 29.90 in 10.0 mi South 16.1 mph 21.9 mph N/A   Clear